#timestamp,LO_Frequency,Hit,StdDev 
1590069615.5,286047001.7,N
1590069635.4,286047002.8,N
1590069655.2,286047002.6,N
1590069675.0,286047002.0,N
1590069675.9,286047002.0,N
1590069695.8,286047003.3,N
1590069715.6,286047003.3,N
1590069735.4,286047003.7,N
1590069755.3,286047004.1,N
1590069775.1,286047001.8,N
1590069795.9,286047001.3,N
1590069815.7,286047001.8,N
1590069835.5,286047002.2,N
1590069855.4,286047003.7,N
1590069875.2,286047004.0,N
1590069895.0,286047003.1,N
1590069895.9,286047003.1,N
1590069915.8,286047003.2,N
1590069935.6,286047004.2,N
1590069955.5,286047001.6,N
1590069975.3,286047003.2,N
1590069995.1,286047004.4,N
1590070015.9,286047003.9,N
1590070035.7,286047004.0,Y
1590070055.5,286047001.0,P
1590070075.4,286047002.0,N
1590070095.2,286047002.8,P
1590070115.1,286047002.3,Y
1590070116.0,286047002.3,P
1590070135.8,286047000.0,N
1590070155.6,286047000.8,N
1590070175.5,286047004.3,Y
1590070195.3,286047000.0,P
1590070215.2,286046999.8,N
1590070235.9,286047001.6,N
1590070255.7,286047000.9,N
1590070275.6,286046999.9,N
1590070295.4,286047001.5,N
1590070315.3,286047002.6,Y
1590070335.1,286046999.8,P
1590070336.0,286046999.8,N
1590070355.8,286047000.5,N
1590070375.7,286046998.3,Y
1590070395.5,286047001.2,P
1590070415.4,286047000.8,N
1590070435.2,286046996.5,P
1590070455.0,286047000.5,N
1590070455.9,286047000.5,N
1590070475.8,286047005.9,Y
1590070495.6,286047002.0,P
1590070515.4,286047004.2,P
1590070535.3,286047002.5,N
1590070555.1,286047001.3,N
1590070575.9,286047001.9,N
1590070595.7,286047000.2,N
1590070615.5,286047002.4,N
1590070635.4,286047001.6,N
1590070655.2,286047001.9,N
1590070675.1,286047003.2,N
1590070676.0,286047003.2,N
1590070695.8,286047002.9,N
1590070715.6,286047003.5,Y
1590070735.5,286047001.5,P
1590070755.3,286047003.8,P
1590070775.2,286047004.5,P
1590070795.9,286047003.3,N
1590070815.7,286047004.8,Y
1590070835.6,286047006.0,P
1590070855.4,286047001.6,N
1590070875.2,286047003.9,N
1590070895.1,286047004.4,N
1590070896.0,286047004.4,N
1590070915.8,286047000.3,N
1590070935.7,286046999.3,N
1590070955.5,286047000.7,N
1590070975.3,286046998.4,N
1590070995.2,286047002.3,N
1590071015.0,286047000.5,N
1590071015.9,286047000.5,N
1590071035.7,286046998.5,N
1590071055.6,286047000.5,N
1590071075.4,286047004.3,N
1590071095.3,286047001.9,N
1590071115.1,286047000.0,N
1590071135.8,286047001.1,N
1590071155.7,286047000.8,N
1590071175.5,286047000.8,N
1590071195.4,286047002.8,N
1590071215.2,286047002.3,N
1590071235.0,286046998.7,N
1590071235.9,286046998.7,N
1590071255.8,286046998.2,N
1590071275.6,286047000.8,N
1590071295.4,286046999.9,N
1590071315.3,286047002.5,N
1590071335.1,286047000.1,N
1590071355.9,286047001.3,N
1590071375.7,286047004.3,N
1590071395.5,286047002.5,N
1590071415.4,286047001.9,N
1590071435.2,286047005.9,Y
1590071455.1,286047002.8,P
1590071456.0,286047002.8,P
1590071475.8,286046999.4,N
1590071495.6,286047000.3,N
1590071515.5,286046999.0,N
1590071535.3,286046998.3,N
1590071555.1,286046997.0,N
1590071575.9,286047001.0,N
1590071595.7,286046996.6,N
1590071615.6,286047001.8,N
1590071635.4,286047000.3,N
1590071655.2,286047001.2,N
1590071675.1,286046996.9,N
1590071676.0,286046996.9,N
1590071695.8,286046996.1,N
1590071715.7,286046997.1,N
1590071735.5,286047000.4,N
1590071755.3,286046999.2,N
1590071775.2,286046999.0,N
1590071795.0,286046998.8,N
1590071795.9,286046998.8,N
1590071815.7,286047000.4,N
1590071835.6,286047000.1,N
1590071855.4,286046996.6,N
1590071875.3,286046998.6,N
1590071895.1,286047000.4,N
1590071915.8,286047002.6,N
1590071935.8,286047000.0,N
1590071955.6,286046996.6,N
1590071975.5,286046999.2,N
1590071995.3,286046999.1,N
1590072015.1,286046996.7,N
1590072035.9,286046998.0,N
1590072055.7,286046996.7,N
1590072075.6,286046996.6,N
1590072095.4,286046998.2,N
1590072115.2,286047000.2,N
1590072165.1,286047001.2,E
1590072175.0,286046998.4,N
1590072175.9,286046998.4,P
1590072195.8,286046997.0,P
1590072215.6,286046997.0,Y
1590072235.4,286047004.0,P
1590072255.3,286047003.8,N
1590072275.1,286047003.4,N
1590072295.9,286047002.0,N
1590072315.7,286047004.2,N
1590072335.5,286047002.5,N
1590072355.4,286047000.3,N
1590072375.2,286047000.8,N
1590072395.0,286046998.4,N
1590072395.9,286046998.4,N
1590072415.8,286046998.4,N
1590072435.6,286046999.2,N
1590072455.5,286046997.4,N
1590072475.3,286046999.0,N
1590072495.1,286046998.7,N
1590072515.9,286047000.8,N
1590072535.7,286047002.4,N
1590072555.5,286047001.4,N
1590072575.4,286047002.4,N
1590072595.2,286047002.7,N
1590072615.1,286047002.8,N
1590072616.0,286047002.8,N
1590072635.8,286046999.8,N
1590072655.6,286047000.0,N
1590072675.5,286047002.4,N
1590072695.3,286046999.9,N
1590072715.2,286047001.9,N
1590072735.9,286047004.3,N
1590072755.7,286047004.1,N
1590072775.6,286047004.2,N
1590072795.4,286047004.1,N
1590072815.2,286047000.5,N
1590072835.1,286047000.5,N
1590072836.0,286047000.5,N
1590072855.8,286047002.5,N
1590072875.7,286047001.3,N
1590072895.5,286047003.0,N
1590072915.3,286047003.1,N
1590072935.2,286047004.0,N
1590072955.0,286047004.4,N
1590072985.9,286047000.5,E
1590072995.9,286047002.1,N
1590073015.7,286047003.7,P
1590073035.5,286047002.0,N
1590073055.4,286047002.2,N
1590073075.2,286047006.0,Y
1590073095.1,286047000.9,P
1590073096.0,286047000.9,N
1590073115.8,286047001.1,N
1590073135.6,286046996.5,Y
1590073155.5,286046996.3,P
1590073175.3,286046996.0,N
1590073195.2,286046997.2,N
